Weather in Nagorny

Russia / Kamchatka Krai     53°07′23″N   158°30′44″E
temp.,
°C
wind,
m/s
gust,
m/s
humid.,
%
clouds,
%
prec.,
mm/h
press.,
hPa
HPBL,
m
20 january, thu
thu2000:00−8nw6868100 0.0 1005231
03:00−8nw7868100 0.0 1005228
06:00−9nw5670100 0.0 1006183
09:00−10nw4575100 0.0 1007162
12:00−8nw5576100 0.0 1008206
15:00−6nw5572100 0.0 1007276
18:00−7nw5673100 0.0 1008228
21:00−8nw4574100 0.0 1009189
21 january, fri
fri2100:00−7wnw4581100 0.1 1010164
03:00−8nw4482100 0.1 1010169
06:00−7wnw4483100 0.1 1011173
09:00−9nw4481100 0.0 1013126
12:00−7nw3475100 0.0 1013184
15:00−5nw2370100 0.0 1012200
18:00−7nw337391 0.0 1012115
21:00−11nw44815 0.0 1013110
22 january, sat
sat2200:00−12nw44839 0.0 1013116
03:00−12nw558367 0.0 1012116
06:00−12nw558263 0.0 1012116
09:00−12nw558446 0.0 1012113
12:00−9nw457722 0.0 1012148
15:00−6nnw337323 0.0 1010151
18:00−7nnw337551 0.0 101097
21:00−10nw44846 0.0 1010105
23 january, sun
sun2300:00−12nw45875 0.0 1009117
03:00−12nw45865 0.0 1009124
06:00−12nw55875 0.0 1008130
09:00−13nw55909 0.0 1007137
12:00−10nw45845 0.0 1007192
15:00−6nw45735 0.0 1005358
18:00−9nw45755 0.0 1005210
21:00−13nw56885 0.0 1006149
24 january, mon
mon2400:00−14nw56915 0.0 1006148
03:00−12nw568796 0.0 1006161
06:00−12nw568779 0.0 1007157
09:00−13nw569056 0.0 1007155
12:00−11nnw45845 0.0 1008193
15:00−7nnw34765 0.0 1007270
18:00−9nnw34804 0.0 1008131
21:00−12nw44879 0.0 1009139